TimePDT,TemperatureF,Dew PointF,Humidity,Sea Level PressureIn,VisibilityMPH,Wind Direction,Wind SpeedMPH,Gust SpeedMPH,PrecipitationIn,Events,Conditions,WindDirDegrees,DateUTC
12:53 AM,68.0,44.1,42,29.90,10.0,NE,5.8,-,N/A,,Clear,40,2013-07-16 07:53:00
1:53 AM,66.9,44.1,44,29.89,10.0,NNE,4.6,-,N/A,,Clear,30,2013-07-16 08:53:00
2:53 AM,66.0,44.1,45,29.88,10.0,North,6.9,-,N/A,,Clear,10,2013-07-16 09:53:00
3:53 AM,64.9,44.1,47,29.88,10.0,Calm,Calm,-,N/A,,Clear,0,2013-07-16 10:53:00
4:53 AM,64.9,44.1,47,29.87,10.0,NNE,5.8,-,N/A,,Clear,30,2013-07-16 11:53:00
5:53 AM,59.0,46.0,62,29.88,10.0,NNW,3.5,-,N/A,,Clear,340,2013-07-16 12:53:00
6:53 AM,63.0,46.9,56,29.88,10.0,Calm,Calm,-,N/A,,Clear,0,2013-07-16 13:53:00
7:53 AM,64.9,46.0,50,29.87,10.0,North,6.9,-,N/A,,Clear,10,2013-07-16 14:53:00
8:53 AM,69.1,48.0,47,29.86,10.0,North,11.5,-,N/A,,Clear,10,2013-07-16 15:53:00
9:53 AM,73.0,46.0,38,29.86,10.0,NNE,12.7,21.9,N/A,,Clear,20,2013-07-16 16:53:00
10:53 AM,77.0,46.9,34,29.86,10.0,North,11.5,-,N/A,,Clear,360,2013-07-16 17:53:00
11:53 AM,75.9,48.0,37,29.86,10.0,NNE,6.9,-,N/A,,Clear,30,2013-07-16 18:53:00
12:53 PM,77.0,45.0,32,29.86,10.0,NNE,10.4,-,N/A,,Clear,20,2013-07-16 19:53:00
1:53 PM,79.0,44.1,29,29.84,10.0,North,8.1,-,N/A,,Clear,360,2013-07-16 20:53:00
2:53 PM,81.0,42.1,25,29.83,10.0,North,10.4,-,N/A,,Clear,10,2013-07-16 21:53:00
3:53 PM,79.0,46.0,31,29.85,10.0,NE,5.8,-,N/A,,Clear,50,2013-07-16 22:53:00
4:53 PM,79.0,45.0,30,29.81,10.0,North,9.2,-,N/A,,Mostly Cloudy,10,2013-07-16 23:53:00
5:53 PM,79.0,48.0,34,29.82,10.0,NW,6.9,-,N/A,,Clear,310,2013-07-17 00:53:00
6:53 PM,79.0,46.9,32,29.81,10.0,North,15.0,21.9,N/A,,Clear,10,2013-07-17 01:53:00
7:53 PM,78.1,48.0,35,29.83,10.0,North,3.5,-,N/A,,Clear,360,2013-07-17 02:53:00
8:53 PM,75.9,46.0,35,29.85,10.0,NW,4.6,-,N/A,,Clear,320,2013-07-17 03:53:00
9:53 PM,75.0,50.0,41,29.87,10.0,Calm,Calm,-,N/A,,Clear,0,2013-07-17 04:53:00
10:53 PM,73.9,52.0,46,29.89,10.0,Calm,Calm,-,N/A,,Clear,0,2013-07-17 05:53:00
11:53 PM,70.0,53.1,55,29.89,10.0,West,5.8,-,N/A,,Clear,260,2013-07-17 06:53:00